Regional Weather Roundup
Issued by NWS

Home | Current Version | Previous Version | Text Only | Print | Product List | Glossary On
Versions: 1 2 3 4 5 6 7 8 9 10 11 12 13 14 15 16 17 18 19 20 21 22 23 24 25 26 27 28 29 30 31 32 33 34 35 36 37 38 39 40 41 42 43 44 45 46 47 48 49 50
000
ASUS43 KFSD 200010
RWRSD

WEATHER ROUNDUP FOR SOUTH DAKOTA
NATIONAL WEATHER SERVICE SIOUX FALLS SD
700 PM CDT FRI SEP 19 2014

NOTE: "FAIR" INDICATES FEW OR NO CLOUDS BELOW 12,000 FEET WITH NO
SIGNIFICANT WEATHER AND/OR OBSTRUCTIONS TO VISIBILITY.


SDZ001>005-009-010-012>017-200100-
NORTHWEST AND NORTH CENTRAL SOUTH DAKOTA

CITY           SKY/WX    TMP DP  RH WIND       PRES   REMARKS
BUFFALO          N/A     75  46  35 NW17      29.81R
FAITH            N/A     76  50  40 NW15      29.82R
MOBRIDGE       CLEAR     78  52  40 NW10      29.71R
$$

SDZ012>016-024>037-041>051-057-063-072>074-200100-
SOUTHWEST AND SOUTH CENTRAL SOUTH DAKOTA

CITY           SKY/WX    TMP DP  RH WIND       PRES   REMARKS
RAPID CTY ARPT CLOUDY    78  49  35 N10       29.86R
PIERRE         CLEAR     81  54  39 N9        29.73R
CUSTER         CLEAR     74  38  27 N3        30.01R
ELLSWORTH AFB  PTCLDY    79  48  34 N14       29.87R
PHILIP         MOCLDY    78  54  43 N8        29.79R
PINE RIDGE     CLEAR     81  53  37 W6        29.84R
WINNER         FAIR      83  56  39 NW5       29.76R
$$

SDZ004>011-016>023-039-040-200100-
NORTHEAST SOUTH DAKOTA

CITY           SKY/WX    TMP DP  RH WIND       PRES   REMARKS
ABERDEEN       CLEAR     77  60  55 W6        29.67R
WATERTOWN      MOCLDY    73  65  75 SW6       29.70R
SISSETON         N/A     77  65  66 W13       29.62S
$$

SDZ017-020-022-023-036>040-048>070-200100-
SOUTHEAST SOUTH DAKOTA

CITY           SKY/WX    TMP DP  RH WIND       PRES   REMARKS
SIOUX FALLS    PTCLDY    83  65  54 W5        29.70S
HURON          MOCLDY    81  60  48 NW6       29.68R
CHAMBERLAIN    MOCLDY    82  58  43 N3        29.73S
MITCHELL       MOCLDY    82  62  50 W3        29.70S
YANKTON        CLEAR     86  72  62 CALM      29.69F
$$

ABBREVIATIONS USED IN REMARKS
   TC - TEMPERATURE IN CELSIUS
  WCI - WIND CHILL INDEX
   HX - HEAT INDEX
  VSB - VISIBILITY




USA.gov is the U.S. government's official web portal to all federal, state and local government web resources and services.